Weather in Chapygi

Russia / Kostroma Oblast     57°42′00″N   43°13′02″E
temp.,
°C
wind,
m/s
gust,
m/s
humid.,
%
clouds,
%
prec.,
mm/h
press.,
hPa
HPBL,
m
12 august, fri
fri1200:00+14wsw2369100 0.0 102452
03:00+13wsw247390 0.0 102478
06:00+14wsw2773100 0.0 1024174
09:00+20w4853100 0.0 1023544
12:00+24w574147 0.0 10221383
15:00+26w57375 0.0 10211653
18:00+24wnw385022 0.0 1020624
21:00+17w247439 0.0 102159
13 august, sat
sat1300:00+16wnw257837 0.0 102194
03:00+14nnw2289100 0.0 102234
06:00+16n12839 0.0 102359
09:00+23nnw11495 0.0 1022482
12:00+26w2239100 0.0 10221671
15:00+27w133996 0.0 10202088
18:00+23ssw2459100 0.0 1020101
21:00+20sw2565100 0.0 1020132
14 august, sun
sun1400:00+19wsw1170100 0.0 102022
03:00+19sw2370100 0.0 102069
06:00+18w1174100 0.0 102021
09:00+23sw115999 0.0 1020455
12:00+27nw124419 0.0 10201597
15:00+24nne2253100 0.0 102061
18:00+23ne266372 0.0 1020285
21:00+20e237090 0.0 102161
15 august, mon
mon1500:00+17ene22851 0.0 102142
03:00+16e22917 0.0 102233
06:00+18e248527 0.0 1022150
09:00+23ese236331 0.0 1022539
12:00+26ese215162 0.0 10231280
15:00+25ese125573 0.0 1022589
18:00+21ene2374100 0.3 102351
21:00+19e12800 0.3 102413
16 august, tue
tue1600:00+17e228743 0.0 102523
03:00+16ese229061 0.0 102643
06:00+17ese138735 0.0 102695
09:00+23ese235922 0.0 1026565
12:00+26e33445 0.0 10261687
15:00+27e33365 0.0 10252036
18:00+24ese36475 0.0 1025238
21:00+18e256410 0.0 102677